TimePST,TemperatureF,Dew PointF,Humidity,Sea Level PressureIn,VisibilityMPH,Wind Direction,Wind SpeedMPH,Gust SpeedMPH,PrecipitationIn,Events,Conditions,WindDirDegrees,DateUTC
12:53 AM,46.0,41.0,83,30.09,5.0,WNW,3.5,-,N/A,,Haze,300,2013-11-29 08:53:00
1:53 AM,46.9,42.1,83,30.09,5.0,NW,5.8,-,N/A,,Haze,320,2013-11-29 09:53:00
2:53 AM,42.1,39.0,89,30.11,4.0,Calm,Calm,-,N/A,,Clear,0,2013-11-29 10:53:00
3:53 AM,41.0,37.9,89,30.11,3.0,SE,4.6,-,N/A,,Mostly Cloudy,140,2013-11-29 11:53:00
4:53 AM,42.1,39.0,89,30.13,4.0,SW,4.6,-,N/A,,Overcast,230,2013-11-29 12:53:00
5:53 AM,44.1,41.0,89,30.13,4.0,Variable,4.6,-,N/A,,Clear,0,2013-11-29 13:53:00
6:41 AM,39.0,37.0,93,30.15,2.5,Calm,Calm,-,N/A,,Partly Cloudy,0,2013-11-29 14:41:00
6:53 AM,39.0,37.0,93,30.17,2.5,Calm,Calm,-,N/A,,Mostly Cloudy,0,2013-11-29 14:53:00
7:09 AM,39.9,37.0,89,30.16,1.8,Calm,Calm,-,N/A,,Mostly Cloudy,0,2013-11-29 15:09:00
7:19 AM,41.0,37.9,89,30.16,2.0,Calm,Calm,-,N/A,,Scattered Clouds,0,2013-11-29 15:19:00
7:31 AM,39.0,37.0,93,30.17,1.2,South,3.5,-,N/A,,Clear,190,2013-11-29 15:31:00
7:53 AM,39.9,37.0,89,30.18,1.8,Calm,Calm,-,N/A,,Clear,0,2013-11-29 15:53:00
8:23 AM,44.1,41.0,89,30.18,2.0,ESE,9.2,-,N/A,,Clear,120,2013-11-29 16:23:00
8:53 AM,45.0,42.1,90,30.21,2.5,Calm,Calm,-,N/A,,Clear,0,2013-11-29 16:53:00
9:29 AM,48.9,44.1,83,30.21,3.0,Calm,Calm,-,N/A,,Haze,0,2013-11-29 17:29:00
9:53 AM,52.0,44.1,74,30.21,3.0,Calm,Calm,-,N/A,,Haze,0,2013-11-29 17:53:00
10:53 AM,55.0,45.0,69,30.20,4.0,Calm,Calm,-,N/A,,Haze,0,2013-11-29 18:53:00
11:53 AM,59.0,43.0,55,30.17,5.0,Calm,Calm,-,N/A,,Haze,0,2013-11-29 19:53:00
12:53 PM,63.0,43.0,48,30.15,5.0,Calm,Calm,-,N/A,,Haze,0,2013-11-29 20:53:00
1:53 PM,64.0,41.0,43,30.14,7.0,WNW,5.8,-,N/A,,Clear,300,2013-11-29 21:53:00
2:53 PM,64.0,43.0,46,30.14,6.0,Calm,Calm,-,N/A,,Haze,0,2013-11-29 22:53:00
3:53 PM,63.0,43.0,48,30.14,6.0,SE,4.6,-,N/A,,Haze,140,2013-11-29 23:53:00
4:53 PM,55.9,46.0,69,30.15,4.0,SSE,5.8,-,N/A,,Haze,160,2013-11-30 00:53:00
5:53 PM,54.0,45.0,72,30.17,5.0,Calm,Calm,-,N/A,,Haze,0,2013-11-30 01:53:00
6:53 PM,50.0,44.1,80,30.20,5.0,Calm,Calm,-,N/A,,Haze,0,2013-11-30 02:53:00
7:53 PM,50.0,45.0,83,30.22,4.0,Calm,Calm,-,N/A,,Haze,0,2013-11-30 03:53:00
8:53 PM,46.9,42.1,83,30.24,4.0,Calm,Calm,-,N/A,,Haze,0,2013-11-30 04:53:00
9:53 PM,46.0,43.0,89,30.25,3.0,Calm,Calm,-,N/A,,Clear,0,2013-11-30 05:53:00
10:50 PM,42.8,39.2,87,30.24,2.5,Calm,Calm,-,N/A,,Clear,0,2013-11-30 06:50:00
10:53 PM,43.0,39.0,86,30.25,2.5,Calm,Calm,-,N/A,,Clear,0,2013-11-30 06:53:00
11:53 PM,44.1,42.1,93,30.24,2.5,Calm,Calm,-,N/A,,Clear,0,2013-11-30 07:53:00